Year,Month,Day,Hour,Minute,Value (Times are PST for insolation in W/m^2)
2009,11,12,00,00,0.00
2009,11,12,00,01,0.00
2009,11,12,00,02,0.00
2009,11,12,00,03,0.00
2009,11,12,00,04,0.00
2009,11,12,00,05,0.00
2009,11,12,00,06,0.00
2009,11,12,00,07,0.00
2009,11,12,00,08,0.00
2009,11,12,00,09,0.00
2009,11,12,00,10,0.00
2009,11,12,00,11,0.00
2009,11,12,00,12,0.00
2009,11,12,00,13,0.00
2009,11,12,00,14,0.00
2009,11,12,00,15,0.00
2009,11,12,00,16,0.00
2009,11,12,00,17,0.00
2009,11,12,00,18,0.00
2009,11,12,00,19,0.00
2009,11,12,00,20,0.00
2009,11,12,00,21,0.00
2009,11,12,00,22,0.00
2009,11,12,00,23,0.00
2009,11,12,00,24,0.00
2009,11,12,00,25,0.00
2009,11,12,00,26,0.00
2009,11,12,00,27,0.00
2009,11,12,00,28,0.00
2009,11,12,00,29,0.00
2009,11,12,00,30,0.00
2009,11,12,00,31,0.00
2009,11,12,00,32,0.00
2009,11,12,00,33,0.00
2009,11,12,00,34,0.00
2009,11,12,00,35,0.00
2009,11,12,00,36,0.00
2009,11,12,00,37,0.00
2009,11,12,00,38,0.00
2009,11,12,00,39,0.00
2009,11,12,00,40,0.00
2009,11,12,00,41,0.00
2009,11,12,00,42,0.00
2009,11,12,00,43,0.00
2009,11,12,00,44,0.00
2009,11,12,00,45,0.00
2009,11,12,00,46,0.00
2009,11,12,00,47,0.00
2009,11,12,00,48,0.00
2009,11,12,00,49,0.00
2009,11,12,00,50,0.00
2009,11,12,00,51,0.00
2009,11,12,00,52,0.00
2009,11,12,00,53,0.00
2009,11,12,00,54,0.00
2009,11,12,00,55,0.00
2009,11,12,00,56,0.00
2009,11,12,00,57,0.00
2009,11,12,00,58,0.00
2009,11,12,00,59,0.00
2009,11,12,01,00,0.00
2009,11,12,01,01,0.00
2009,11,12,01,02,0.00
2009,11,12,01,03,0.00
2009,11,12,01,04,0.00
2009,11,12,01,05,0.00
2009,11,12,01,06,0.00
2009,11,12,01,07,0.00
2009,11,12,01,08,0.00
2009,11,12,01,09,0.00
2009,11,12,01,10,0.00
2009,11,12,01,11,0.00
2009,11,12,01,12,0.00
2009,11,12,01,13,0.00
2009,11,12,01,14,0.00
2009,11,12,01,15,0.00
2009,11,12,01,16,0.00
2009,11,12,01,17,0.00
2009,11,12,01,18,0.00
2009,11,12,01,19,0.00
2009,11,12,01,20,0.00
2009,11,12,01,21,0.00
2009,11,12,01,22,0.00
2009,11,12,01,23,0.00
2009,11,12,01,24,0.00
2009,11,12,01,25,0.00
2009,11,12,01,26,0.00
2009,11,12,01,27,0.00
2009,11,12,01,28,0.00
2009,11,12,01,29,0.00
2009,11,12,01,30,0.00
2009,11,12,01,31,0.00
2009,11,12,01,32,0.00
2009,11,12,01,33,0.00
2009,11,12,01,34,0.00
2009,11,12,01,35,0.00
2009,11,12,01,36,0.00
2009,11,12,01,37,0.00
2009,11,12,01,38,0.00
2009,11,12,01,39,0.00
2009,11,12,01,40,0.00
2009,11,12,01,41,0.00
2009,11,12,01,42,0.00
2009,11,12,01,43,0.00
2009,11,12,01,44,0.00
2009,11,12,01,45,0.00
2009,11,12,01,46,0.00
2009,11,12,01,47,0.00
2009,11,12,01,48,0.00
2009,11,12,01,49,0.00
2009,11,12,01,50,0.00
2009,11,12,01,51,0.00
2009,11,12,01,52,0.00
2009,11,12,01,53,0.00
2009,11,12,01,54,0.00
2009,11,12,01,55,0.00
2009,11,12,01,56,0.00
2009,11,12,01,57,0.00
2009,11,12,01,58,0.00
2009,11,12,01,59,0.00
2009,11,12,02,00,0.00
2009,11,12,02,01,0.00
2009,11,12,02,02,0.00
2009,11,12,02,03,0.00
2009,11,12,02,04,0.00
2009,11,12,02,05,0.00
2009,11,12,02,06,0.00
2009,11,12,02,07,0.00
2009,11,12,02,08,0.00
2009,11,12,02,09,0.00
2009,11,12,02,10,0.00
2009,11,12,02,11,0.00
2009,11,12,02,12,0.00
2009,11,12,02,13,0.00
2009,11,12,02,14,0.00
2009,11,12,02,15,0.00
2009,11,12,02,16,0.00
2009,11,12,02,17,0.00
2009,11,12,02,18,0.00
2009,11,12,02,19,0.00
2009,11,12,02,20,0.00
2009,11,12,02,21,0.00
2009,11,12,02,22,0.00
2009,11,12,02,23,0.00
2009,11,12,02,24,0.00
2009,11,12,02,25,0.00
2009,11,12,02,26,0.00
2009,11,12,02,27,0.00
2009,11,12,02,28,0.00
2009,11,12,02,29,0.00
2009,11,12,02,30,0.00
2009,11,12,02,31,0.00
2009,11,12,02,32,0.00
2009,11,12,02,33,0.00
2009,11,12,02,34,0.00
2009,11,12,02,35,0.00
2009,11,12,02,36,0.00
2009,11,12,02,37,0.00
2009,11,12,02,38,0.00
2009,11,12,02,39,0.00
2009,11,12,02,40,0.00
2009,11,12,02,41,0.00
2009,11,12,02,42,0.00
2009,11,12,02,43,0.00
2009,11,12,02,44,0.00
2009,11,12,02,45,0.00
2009,11,12,02,46,0.00
2009,11,12,02,47,0.00
2009,11,12,02,48,0.00
2009,11,12,02,49,0.00
2009,11,12,02,50,0.00
2009,11,12,02,51,0.00
2009,11,12,02,52,0.00
2009,11,12,02,53,0.00
2009,11,12,02,54,0.00
2009,11,12,02,55,0.00
2009,11,12,02,56,0.00
2009,11,12,02,57,0.00
2009,11,12,02,58,0.00
2009,11,12,02,59,0.00
2009,11,12,03,00,0.00
2009,11,12,03,01,0.00
2009,11,12,03,02,0.00
2009,11,12,03,03,0.00
2009,11,12,03,04,0.00
2009,11,12,03,05,0.00
2009,11,12,03,06,0.00
2009,11,12,03,07,0.00
2009,11,12,03,08,0.00
2009,11,12,03,09,0.00
2009,11,12,03,10,0.00
2009,11,12,03,11,0.00
2009,11,12,03,12,0.00
2009,11,12,03,13,0.00
2009,11,12,03,14,0.00
2009,11,12,03,15,0.00
2009,11,12,03,16,0.00
2009,11,12,03,17,0.00
2009,11,12,03,18,0.00
2009,11,12,03,19,0.00
2009,11,12,03,20,0.00
2009,11,12,03,21,0.00
2009,11,12,03,22,0.00
2009,11,12,03,23,0.00
2009,11,12,03,24,0.00
2009,11,12,03,25,0.00
2009,11,12,03,26,0.00
2009,11,12,03,27,0.00
2009,11,12,03,28,0.00
2009,11,12,03,29,0.00
2009,11,12,03,30,0.00
2009,11,12,03,31,0.00
2009,11,12,03,32,0.00
2009,11,12,03,33,0.00
2009,11,12,03,34,0.00
2009,11,12,03,35,0.00
2009,11,12,03,36,0.00
2009,11,12,03,37,0.00
2009,11,12,03,38,0.00
2009,11,12,03,39,0.00
2009,11,12,03,40,0.00
2009,11,12,03,41,0.00
2009,11,12,03,42,0.00
2009,11,12,03,43,0.00
2009,11,12,03,44,0.00
2009,11,12,03,45,0.00
2009,11,12,03,46,0.00
2009,11,12,03,47,0.00
2009,11,12,03,48,0.00
2009,11,12,03,49,0.00
2009,11,12,03,50,0.00
2009,11,12,03,51,0.00
2009,11,12,03,52,0.00
2009,11,12,03,53,0.00
2009,11,12,03,54,0.00
2009,11,12,03,55,0.00
2009,11,12,03,56,0.00
2009,11,12,03,57,0.00
2009,11,12,03,58,0.00
2009,11,12,03,59,0.00
2009,11,12,04,00,0.00
2009,11,12,04,01,0.00
2009,11,12,04,02,0.00
2009,11,12,04,03,0.00
2009,11,12,04,04,0.00
2009,11,12,04,05,0.00
2009,11,12,04,06,0.00
2009,11,12,04,07,0.00
2009,11,12,04,08,0.00
2009,11,12,04,09,0.00
2009,11,12,04,10,0.00
2009,11,12,04,11,0.00
2009,11,12,04,12,0.00
2009,11,12,04,13,0.00
2009,11,12,04,14,0.00
2009,11,12,04,15,0.00
2009,11,12,04,16,0.00
2009,11,12,04,17,0.00
2009,11,12,04,18,0.00
2009,11,12,04,19,0.00
2009,11,12,04,20,0.00
2009,11,12,04,21,0.00
2009,11,12,04,22,0.00
2009,11,12,04,23,0.00
2009,11,12,04,24,0.00
2009,11,12,04,25,0.00
2009,11,12,04,26,0.00
2009,11,12,04,27,0.00
2009,11,12,04,28,0.00
2009,11,12,04,29,0.00
2009,11,12,04,30,0.00
2009,11,12,04,31,0.00
2009,11,12,04,32,0.00
2009,11,12,04,33,0.00
2009,11,12,04,34,0.00
2009,11,12,04,35,0.00
2009,11,12,04,36,0.00
2009,11,12,04,37,0.00
2009,11,12,04,38,0.00
2009,11,12,04,39,0.00
2009,11,12,04,40,0.00
2009,11,12,04,41,0.00
2009,11,12,04,42,0.00
2009,11,12,04,43,0.00
2009,11,12,04,44,0.00
2009,11,12,04,45,0.00
2009,11,12,04,46,0.00
2009,11,12,04,47,0.00
2009,11,12,04,48,0.00
2009,11,12,04,49,0.00
2009,11,12,04,50,0.00
2009,11,12,04,51,0.00
2009,11,12,04,52,0.00
2009,11,12,04,53,0.00
2009,11,12,04,54,0.00
2009,11,12,04,55,0.00
2009,11,12,04,56,0.00
2009,11,12,04,57,0.00
2009,11,12,04,58,0.00
2009,11,12,04,59,0.00
2009,11,12,05,00,0.00
2009,11,12,05,01,0.00
2009,11,12,05,02,0.00
2009,11,12,05,03,0.00
2009,11,12,05,04,0.00
2009,11,12,05,05,0.00
2009,11,12,05,06,0.00
2009,11,12,05,07,0.00
2009,11,12,05,08,0.00
2009,11,12,05,09,0.00
2009,11,12,05,10,0.00
2009,11,12,05,11,0.00
2009,11,12,05,12,0.00
2009,11,12,05,13,0.00
2009,11,12,05,14,0.00
2009,11,12,05,15,0.00
2009,11,12,05,16,0.00
2009,11,12,05,17,0.00
2009,11,12,05,18,0.00
2009,11,12,05,19,0.00
2009,11,12,05,20,0.00
2009,11,12,05,21,0.00
2009,11,12,05,22,0.00
2009,11,12,05,23,0.00
2009,11,12,05,24,0.00
2009,11,12,05,25,0.00
2009,11,12,05,26,0.00
2009,11,12,05,27,0.00
2009,11,12,05,28,0.00
2009,11,12,05,29,0.00
2009,11,12,05,30,0.00
2009,11,12,05,31,0.00
2009,11,12,05,32,0.00
2009,11,12,05,33,0.00
2009,11,12,05,34,0.00
2009,11,12,05,35,0.00
2009,11,12,05,36,0.00
2009,11,12,05,37,0.00
2009,11,12,05,38,0.00
2009,11,12,05,39,0.00
2009,11,12,05,40,0.00
2009,11,12,05,41,0.00
2009,11,12,05,42,0.00
2009,11,12,05,43,0.00
2009,11,12,05,44,0.00
2009,11,12,05,45,0.00
2009,11,12,05,46,0.00
2009,11,12,05,47,0.00
2009,11,12,05,48,0.00
2009,11,12,05,49,0.00
2009,11,12,05,50,0.00
2009,11,12,05,51,0.00
2009,11,12,05,52,0.00
2009,11,12,05,53,0.00
2009,11,12,05,54,0.00
2009,11,12,05,55,0.00
2009,11,12,05,56,0.00
2009,11,12,05,57,0.00
2009,11,12,05,58,0.00
2009,11,12,05,59,0.00
2009,11,12,06,00,0.00
2009,11,12,06,01,0.00
2009,11,12,06,02,0.00
2009,11,12,06,03,0.00
2009,11,12,06,04,0.00
2009,11,12,06,05,0.00
2009,11,12,06,06,0.00
2009,11,12,06,07,0.00
2009,11,12,06,08,0.00
2009,11,12,06,09,0.00
2009,11,12,06,10,0.00
2009,11,12,06,11,0.00
2009,11,12,06,12,0.00
2009,11,12,06,13,0.00
2009,11,12,06,14,0.00
2009,11,12,06,15,0.00
2009,11,12,06,16,0.00
2009,11,12,06,17,0.00
2009,11,12,06,18,0.00
2009,11,12,06,19,0.00
2009,11,12,06,20,0.00
2009,11,12,06,21,0.00
2009,11,12,06,22,0.00
2009,11,12,06,23,0.00
2009,11,12,06,24,0.00
2009,11,12,06,25,0.00
2009,11,12,06,26,0.00
2009,11,12,06,27,0.00
2009,11,12,06,28,0.00
2009,11,12,06,29,0.00
2009,11,12,06,30,0.00
2009,11,12,06,31,0.00
2009,11,12,06,32,0.00
2009,11,12,06,33,0.00
2009,11,12,06,34,0.00
2009,11,12,06,35,0.00
2009,11,12,06,36,0.00
2009,11,12,06,37,0.00
2009,11,12,06,38,0.00
2009,11,12,06,39,0.00
2009,11,12,06,40,0.00
2009,11,12,06,41,0.00
2009,11,12,06,42,0.00
2009,11,12,06,43,0.00
2009,11,12,06,44,0.00
2009,11,12,06,45,0.00
2009,11,12,06,46,0.00
2009,11,12,06,47,0.00
2009,11,12,06,48,0.00
2009,11,12,06,49,0.00
2009,11,12,06,50,0.00
2009,11,12,06,51,0.00
2009,11,12,06,52,0.00
2009,11,12,06,53,0.00
2009,11,12,06,54,0.00
2009,11,12,06,55,0.00
2009,11,12,06,56,0.00
2009,11,12,06,57,0.00
2009,11,12,06,58,0.00
2009,11,12,06,59,0.00
2009,11,12,07,00,0.00
2009,11,12,07,01,0.00
2009,11,12,07,02,0.00
2009,11,12,07,03,0.00
2009,11,12,07,04,0.00
2009,11,12,07,05,0.00
2009,11,12,07,06,0.00
2009,11,12,07,07,0.00
2009,11,12,07,08,0.00
2009,11,12,07,09,0.00
2009,11,12,07,10,0.00
2009,11,12,07,11,0.00
2009,11,12,07,12,0.00
2009,11,12,07,13,0.00
2009,11,12,07,14,0.00
2009,11,12,07,15,0.00
2009,11,12,07,16,0.00
2009,11,12,07,17,0.00
2009,11,12,07,18,0.00
2009,11,12,07,19,0.00
2009,11,12,07,20,0.00
2009,11,12,07,21,0.00
2009,11,12,07,22,0.00
2009,11,12,07,23,0.00
2009,11,12,07,24,0.00
2009,11,12,07,25,0.00
2009,11,12,07,26,0.00
2009,11,12,07,27,0.00
2009,11,12,07,28,0.00
2009,11,12,07,29,2.40
2009,11,12,07,30,5.00
2009,11,12,07,31,5.00
2009,11,12,07,32,5.00
2009,11,12,07,33,5.00
2009,11,12,07,34,5.00
2009,11,12,07,35,5.00
2009,11,12,07,36,5.00
2009,11,12,07,37,5.00
2009,11,12,07,38,6.90
2009,11,12,07,39,7.00
2009,11,12,07,40,7.00
2009,11,12,07,41,8.10
2009,11,12,07,42,9.00
2009,11,12,07,43,9.00
2009,11,12,07,44,11.00
2009,11,12,07,45,11.00
2009,11,12,07,46,11.00
2009,11,12,07,47,11.40
2009,11,12,07,48,12.00
2009,11,12,07,49,12.00
2009,11,12,07,50,12.00
2009,11,12,07,51,12.50
2009,11,12,07,52,14.00
2009,11,12,07,53,14.00
2009,11,12,07,54,14.00
2009,11,12,07,55,15.80
2009,11,12,07,56,16.20
2009,11,12,07,57,18.00
2009,11,12,07,58,18.40
2009,11,12,07,59,20.20
2009,11,12,08,00,22.50
2009,11,12,08,01,24.90
2009,11,12,08,02,26.00
2009,11,12,08,03,26.50
2009,11,12,08,04,28.00
2009,11,12,08,05,28.00
2009,11,12,08,06,28.00
2009,11,12,08,07,29.60
2009,11,12,08,08,30.20
2009,11,12,08,09,32.00
2009,11,12,08,10,32.50
2009,11,12,08,11,33.00
2009,11,12,08,12,33.00
2009,11,12,08,13,34.90
2009,11,12,08,14,35.20
2009,11,12,08,15,37.60
2009,11,12,08,16,39.00
2009,11,12,08,17,39.60
2009,11,12,08,18,41.60
2009,11,12,08,19,44.00
2009,11,12,08,20,46.20
2009,11,12,08,21,47.70
2009,11,12,08,22,49.90
2009,11,12,08,23,52.30
2009,11,12,08,24,53.80
2009,11,12,08,25,54.00
2009,11,12,08,26,56.00
2009,11,12,08,27,56.00
2009,11,12,08,28,57.10
2009,11,12,08,29,58.00
2009,11,12,08,30,59.80
2009,11,12,08,31,62.00
2009,11,12,08,32,62.00
2009,11,12,08,33,62.00
2009,11,12,08,34,60.90
2009,11,12,08,35,61.20
2009,11,12,08,36,62.90
2009,11,12,08,37,67.10
2009,11,12,08,38,69.20
2009,11,12,08,39,70.70
2009,11,12,08,40,72.00
2009,11,12,08,41,74.80
2009,11,12,08,42,76.80
2009,11,12,08,43,79.60
2009,11,12,08,44,83.80
2009,11,12,08,45,83.40
2009,11,12,08,46,85.20
2009,11,12,08,47,89.10
2009,11,12,08,48,90.90
2009,11,12,08,49,93.60
2009,11,12,08,50,100.10
2009,11,12,08,51,109.20
2009,11,12,08,52,115.10
2009,11,12,08,53,117.50
2009,11,12,08,54,118.00
2009,11,12,08,55,118.00
2009,11,12,08,56,118.00
2009,11,12,08,57,117.10
2009,11,12,08,58,114.10
2009,11,12,08,59,105.60
2009,11,12,09,00,98.00
2009,11,12,09,01,94.60
2009,11,12,09,02,93.00
2009,11,12,09,03,93.00
2009,11,12,09,04,91.70
2009,11,12,09,05,88.50
2009,11,12,09,06,88.00
2009,11,12,09,07,83.80
2009,11,12,09,08,83.40
2009,11,12,09,09,84.00
2009,11,12,09,10,86.80
2009,11,12,09,11,90.60
2009,11,12,09,12,95.00
2009,11,12,09,13,95.00
2009,11,12,09,14,94.20
2009,11,12,09,15,91.90
2009,11,12,09,16,91.00
2009,11,12,09,17,90.10
2009,11,12,09,18,90.10
2009,11,12,09,19,91.50
2009,11,12,09,20,93.00
2009,11,12,09,21,93.00
2009,11,12,09,22,91.50
2009,11,12,09,23,91.00
2009,11,12,09,24,87.80
2009,11,12,09,25,83.30
2009,11,12,09,26,80.20
2009,11,12,09,27,78.00
2009,11,12,09,28,76.20
2009,11,12,09,29,74.10
2009,11,12,09,30,73.80
2009,11,12,09,31,72.00
2009,11,12,09,32,71.20
2009,11,12,09,33,70.00
2009,11,12,09,34,69.20
2009,11,12,09,35,69.00
2009,11,12,09,36,67.00
2009,11,12,09,37,67.00
2009,11,12,09,38,67.00
2009,11,12,09,39,67.00
2009,11,12,09,40,68.60
2009,11,12,09,41,69.00
2009,11,12,09,42,69.40
2009,11,12,09,43,72.60
2009,11,12,09,44,75.00
2009,11,12,09,45,76.60
2009,11,12,09,46,80.30
2009,11,12,09,47,82.70
2009,11,12,09,48,86.70
2009,11,12,09,49,91.10
2009,11,12,09,50,94.10
2009,11,12,09,51,96.40
2009,11,12,09,52,97.90
2009,11,12,09,53,98.00
2009,11,12,09,54,98.40
2009,11,12,09,55,100.00
2009,11,12,09,56,102.10
2009,11,12,09,57,104.70
2009,11,12,09,58,106.50
2009,11,12,09,59,113.20
2009,11,12,10,00,122.60
2009,11,12,10,01,130.90
2009,11,12,10,02,141.50
2009,11,12,10,03,146.00
2009,11,12,10,04,154.80
2009,11,12,10,05,171.20
2009,11,12,10,06,175.20
2009,11,12,10,07,181.90
2009,11,12,10,08,189.90
2009,11,12,10,09,197.60
2009,11,12,10,10,201.80
2009,11,12,10,11,206.80
2009,11,12,10,12,215.40
2009,11,12,10,13,226.20
2009,11,12,10,14,233.10
2009,11,12,10,15,228.60
2009,11,12,10,16,223.20
2009,11,12,10,17,217.50
2009,11,12,10,18,214.00
2009,11,12,10,19,210.70
2009,11,12,10,20,205.10
2009,11,12,10,21,202.40
2009,11,12,10,22,202.00
2009,11,12,10,23,200.40
2009,11,12,10,24,204.20
2009,11,12,10,25,196.20
2009,11,12,10,26,193.00
2009,11,12,10,27,192.20
2009,11,12,10,28,192.00
2009,11,12,10,29,193.00
2009,11,12,10,30,192.60
2009,11,12,10,31,192.50
2009,11,12,10,32,194.40
2009,11,12,10,33,196.80
2009,11,12,10,34,197.00
2009,11,12,10,35,197.00
2009,11,12,10,36,195.20
2009,11,12,10,37,188.80
2009,11,12,10,38,184.20
2009,11,12,10,39,178.60
2009,11,12,10,40,171.70
2009,11,12,10,41,166.00
2009,11,12,10,42,159.50
2009,11,12,10,43,154.20
2009,11,12,10,44,149.40
2009,11,12,10,45,146.20
2009,11,12,10,46,142.10
2009,11,12,10,47,141.00
2009,11,12,10,48,141.40
2009,11,12,10,49,143.20
2009,11,12,10,50,147.10
2009,11,12,10,51,150.80
2009,11,12,10,52,153.00
2009,11,12,10,53,153.60
2009,11,12,10,54,153.40
2009,11,12,10,55,149.40
2009,11,12,10,56,146.60
2009,11,12,10,57,142.20
2009,11,12,10,58,140.80
2009,11,12,10,59,138.40
2009,11,12,11,00,137.00
2009,11,12,11,01,137.00
2009,11,12,11,02,137.00
2009,11,12,11,03,137.00
2009,11,12,11,04,139.00
2009,11,12,11,05,138.30
2009,11,12,11,06,137.00
2009,11,12,11,07,135.70
2009,11,12,11,08,134.20
2009,11,12,11,09,134.00
2009,11,12,11,10,134.20
2009,11,12,11,11,135.60
2009,11,12,11,12,138.10
2009,11,12,11,13,141.10
2009,11,12,11,14,145.30
2009,11,12,11,15,149.00
2009,11,12,11,16,155.40
2009,11,12,11,17,159.40
2009,11,12,11,18,162.50
2009,11,12,11,19,165.90
2009,11,12,11,20,170.50
2009,11,12,11,21,176.30
2009,11,12,11,22,181.90
2009,11,12,11,23,184.20
2009,11,12,11,24,181.90
2009,11,12,11,25,178.90
2009,11,12,11,26,176.20
2009,11,12,11,27,172.10
2009,11,12,11,28,170.10
2009,11,12,11,29,166.20
2009,11,12,11,30,163.20
2009,11,12,11,31,160.50
2009,11,12,11,32,158.40
2009,11,12,11,33,156.00
2009,11,12,11,34,155.70
2009,11,12,11,35,155.00
2009,11,12,11,36,155.00
2009,11,12,11,37,155.00
2009,11,12,11,38,157.80
2009,11,12,11,39,162.50
2009,11,12,11,40,165.60
2009,11,12,11,41,167.00
2009,11,12,11,42,165.70
2009,11,12,11,43,162.50
2009,11,12,11,44,160.10
2009,11,12,11,45,158.00
2009,11,12,11,46,158.00
2009,11,12,11,47,159.10
2009,11,12,11,48,161.30
2009,11,12,11,49,162.80
2009,11,12,11,50,163.00
2009,11,12,11,51,162.80
2009,11,12,11,52,160.60
2009,11,12,11,53,156.40
2009,11,12,11,54,152.20
2009,11,12,11,55,147.20
2009,11,12,11,56,140.90
2009,11,12,11,57,139.00
2009,11,12,11,58,139.70
2009,11,12,11,59,141.50
2009,11,12,12,00,144.80
2009,11,12,12,01,147.80
2009,11,12,12,02,153.40
2009,11,12,12,03,162.80
2009,11,12,12,04,173.40
2009,11,12,12,05,180.10
2009,11,12,12,06,188.40
2009,11,12,12,07,194.40
2009,11,12,12,08,199.00
2009,11,12,12,09,197.80
2009,11,12,12,10,192.60
2009,11,12,12,11,187.10
2009,11,12,12,12,183.50
2009,11,12,12,13,179.20
2009,11,12,12,14,177.80
2009,11,12,12,15,176.00
2009,11,12,12,16,176.00
2009,11,12,12,17,177.30
2009,11,12,12,18,178.80
2009,11,12,12,19,179.00
2009,11,12,12,20,180.70
2009,11,12,12,21,179.00
2009,11,12,12,22,178.50
2009,11,12,12,23,178.60
2009,11,12,12,24,180.60
2009,11,12,12,25,182.70
2009,11,12,12,26,185.50
2009,11,12,12,27,189.40
2009,11,12,12,28,193.40
2009,11,12,12,29,199.70
2009,11,12,12,30,199.50
2009,11,12,12,31,199.00
2009,11,12,12,32,198.70
2009,11,12,12,33,195.60
2009,11,12,12,34,191.40
2009,11,12,12,35,187.20
2009,11,12,12,36,182.20
2009,11,12,12,37,177.90
2009,11,12,12,38,176.00
2009,11,12,12,39,175.20
2009,11,12,12,40,174.00
2009,11,12,12,41,174.00
2009,11,12,12,42,174.00
2009,11,12,12,43,174.10
2009,11,12,12,44,176.70
2009,11,12,12,45,179.70
2009,11,12,12,46,182.00
2009,11,12,12,47,186.60
2009,11,12,12,48,185.20
2009,11,12,12,49,183.00
2009,11,12,12,50,183.00
2009,11,12,12,51,183.00
2009,11,12,12,52,184.20
2009,11,12,12,53,185.00
2009,11,12,12,54,185.90
2009,11,12,12,55,186.00
2009,11,12,12,56,186.60
2009,11,12,12,57,188.90
2009,11,12,12,58,192.90
2009,11,12,12,59,198.10
2009,11,12,13,00,203.00
2009,11,12,13,01,213.40
2009,11,12,13,02,210.50
2009,11,12,13,03,220.10
2009,11,12,13,04,228.30
2009,11,12,13,05,222.40
2009,11,12,13,06,232.00
2009,11,12,13,07,242.10
2009,11,12,13,08,269.10
2009,11,12,13,09,219.20
2009,11,12,13,10,209.50
2009,11,12,13,11,206.20
2009,11,12,13,12,199.00
2009,11,12,13,13,200.80
2009,11,12,13,14,210.80
2009,11,12,13,15,216.10
2009,11,12,13,16,226.50
2009,11,12,13,17,215.90
2009,11,12,13,18,239.50
2009,11,12,13,19,213.90
2009,11,12,13,20,207.70
2009,11,12,13,21,221.20
2009,11,12,13,22,212.20
2009,11,12,13,23,204.00
2009,11,12,13,24,212.60
2009,11,12,13,25,207.00
2009,11,12,13,26,207.00
2009,11,12,13,27,224.10
2009,11,12,13,28,234.50
2009,11,12,13,29,211.90
2009,11,12,13,30,233.40
2009,11,12,13,31,286.90
2009,11,12,13,32,345.00
2009,11,12,13,33,272.10
2009,11,12,13,34,215.60
2009,11,12,13,35,233.60
2009,11,12,13,36,232.80
2009,11,12,13,37,207.50
2009,11,12,13,38,204.80
2009,11,12,13,39,214.80
2009,11,12,13,40,241.60
2009,11,12,13,41,219.70
2009,11,12,13,42,264.80
2009,11,12,13,43,291.40
2009,11,12,13,44,353.70
2009,11,12,13,45,371.40
2009,11,12,13,46,327.00
2009,11,12,13,47,364.00
2009,11,12,13,48,355.50
2009,11,12,13,49,347.80
2009,11,12,13,50,365.10
2009,11,12,13,51,345.30
2009,11,12,13,52,305.20
2009,11,12,13,53,313.00
2009,11,12,13,54,303.60
2009,11,12,13,55,312.80
2009,11,12,13,56,321.90
2009,11,12,13,57,326.20
2009,11,12,13,58,322.40
2009,11,12,13,59,320.10
2009,11,12,14,00,322.20
2009,11,12,14,01,323.00
2009,11,12,14,02,323.90
2009,11,12,14,03,326.40
2009,11,12,14,04,328.80
2009,11,12,14,05,333.50
2009,11,12,14,06,307.40
2009,11,12,14,07,258.90
2009,11,12,14,08,313.00
2009,11,12,14,09,170.80
2009,11,12,14,10,147.70
2009,11,12,14,11,135.80
2009,11,12,14,12,251.10
2009,11,12,14,13,323.00
2009,11,12,14,14,323.00
2009,11,12,14,15,284.60
2009,11,12,14,16,264.00
2009,11,12,14,17,128.20
2009,11,12,14,18,129.40
2009,11,12,14,19,127.50
2009,11,12,14,20,125.80
2009,11,12,14,21,125.00
2009,11,12,14,22,120.30
2009,11,12,14,23,118.80
2009,11,12,14,24,130.60
2009,11,12,14,25,149.00
2009,11,12,14,26,217.60
2009,11,12,14,27,211.40
2009,11,12,14,28,281.00
2009,11,12,14,29,217.20
2009,11,12,14,30,277.20
2009,11,12,14,31,272.60
2009,11,12,14,32,269.60
2009,11,12,14,33,265.70
2009,11,12,14,34,269.00
2009,11,12,14,35,269.00
2009,11,12,14,36,267.20
2009,11,12,14,37,261.90
2009,11,12,14,38,251.50
2009,11,12,14,39,250.50
2009,11,12,14,40,245.80
2009,11,12,14,41,241.60
2009,11,12,14,42,235.90
2009,11,12,14,43,233.00
2009,11,12,14,44,230.60
2009,11,12,14,45,229.10
2009,11,12,14,46,225.20
2009,11,12,14,47,222.50
2009,11,12,14,48,220.60
2009,11,12,14,49,218.90
2009,11,12,14,50,215.20
2009,11,12,14,51,213.10
2009,11,12,14,52,208.80
2009,11,12,14,53,206.70
2009,11,12,14,54,205.20
2009,11,12,14,55,201.60
2009,11,12,14,56,199.20
2009,11,12,14,57,197.40
2009,11,12,14,58,194.70
2009,11,12,14,59,191.40
2009,11,12,15,00,189.10
2009,11,12,15,01,186.20
2009,11,12,15,02,185.00
2009,11,12,15,03,183.10
2009,11,12,15,04,180.80
2009,11,12,15,05,178.70
2009,11,12,15,06,176.10
2009,11,12,15,07,172.70
2009,11,12,15,08,171.20
2009,11,12,15,09,169.30
2009,11,12,15,10,166.60
2009,11,12,15,11,164.30
2009,11,12,15,12,162.50
2009,11,12,15,13,160.70
2009,11,12,15,14,158.40
2009,11,12,15,15,156.00
2009,11,12,15,16,154.30
2009,11,12,15,17,150.40
2009,11,12,15,18,148.60
2009,11,12,15,19,146.60
2009,11,12,15,20,144.20
2009,11,12,15,21,141.90
2009,11,12,15,22,140.10
2009,11,12,15,23,136.30
2009,11,12,15,24,134.60
2009,11,12,15,25,132.80
2009,11,12,15,26,128.40
2009,11,12,15,27,125.40
2009,11,12,15,28,112.50
2009,11,12,15,29,111.00
2009,11,12,15,30,112.80
2009,11,12,15,31,114.00
2009,11,12,15,32,115.90
2009,11,12,15,33,113.00
2009,11,12,15,34,112.20
2009,11,12,15,35,108.20
2009,11,12,15,36,105.20
2009,11,12,15,37,104.00
2009,11,12,15,38,100.20
2009,11,12,15,39,97.90
2009,11,12,15,40,96.40
2009,11,12,15,41,94.10
2009,11,12,15,42,91.80
2009,11,12,15,43,90.30
2009,11,12,15,44,88.10
2009,11,12,15,45,85.80
2009,11,12,15,46,83.80
2009,11,12,15,47,82.10
2009,11,12,15,48,79.70
2009,11,12,15,49,77.60
2009,11,12,15,50,76.00
2009,11,12,15,51,73.30
2009,11,12,15,52,69.60
2009,11,12,15,53,67.90
2009,11,12,15,54,65.60
2009,11,12,15,55,63.40
2009,11,12,15,56,62.00
2009,11,12,15,57,59.60
2009,11,12,15,58,57.30
2009,11,12,15,59,54.90
2009,11,12,16,00,53.30
2009,11,12,16,01,51.20
2009,11,12,16,02,48.90
2009,11,12,16,03,46.80
2009,11,12,16,04,45.30
2009,11,12,16,05,42.90
2009,11,12,16,06,40.60
2009,11,12,16,07,40.00
2009,11,12,16,08,38.90
2009,11,12,16,09,36.50
2009,11,12,16,10,34.20
2009,11,12,16,11,31.20
2009,11,12,16,12,26.20
2009,11,12,16,13,21.50
2009,11,12,16,14,20.80
2009,11,12,16,15,18.70
2009,11,12,16,16,18.00
2009,11,12,16,17,18.00
2009,11,12,16,18,16.50
2009,11,12,16,19,16.00
2009,11,12,16,20,14.00
2009,11,12,16,21,14.00
2009,11,12,16,22,14.00
2009,11,12,16,23,12.70
2009,11,12,16,24,12.00
2009,11,12,16,25,12.00
2009,11,12,16,26,11.00
2009,11,12,16,27,11.00
2009,11,12,16,28,10.10
2009,11,12,16,29,9.00
2009,11,12,16,30,9.00
2009,11,12,16,31,7.00
2009,11,12,16,32,7.00
2009,11,12,16,33,7.00
2009,11,12,16,34,5.90
2009,11,12,16,35,5.00
2009,11,12,16,36,5.00
2009,11,12,16,37,5.00
2009,11,12,16,38,0.00
2009,11,12,16,39,0.00
2009,11,12,16,40,0.00
2009,11,12,16,41,0.00
2009,11,12,16,42,0.00
2009,11,12,16,43,0.00
2009,11,12,16,44,0.00
2009,11,12,16,45,0.00
2009,11,12,16,46,0.00
2009,11,12,16,47,0.00
2009,11,12,16,48,0.00
2009,11,12,16,49,0.00
2009,11,12,16,50,0.00
2009,11,12,16,51,0.00
2009,11,12,16,52,0.00
2009,11,12,16,53,0.00
2009,11,12,16,54,0.00
2009,11,12,16,55,0.00
2009,11,12,16,56,0.00
2009,11,12,16,57,0.00
2009,11,12,16,58,0.00
2009,11,12,16,59,0.00
2009,11,12,17,00,0.00
2009,11,12,17,01,0.00
2009,11,12,17,02,0.00
2009,11,12,17,03,0.00
2009,11,12,17,04,0.00
2009,11,12,17,05,0.00
2009,11,12,17,06,0.00
2009,11,12,17,07,0.00
2009,11,12,17,08,0.00
2009,11,12,17,09,0.00
2009,11,12,17,10,0.00
2009,11,12,17,11,0.00
2009,11,12,17,12,0.00
2009,11,12,17,13,0.00
2009,11,12,17,14,0.00
2009,11,12,17,15,0.00
2009,11,12,17,16,0.00
2009,11,12,17,17,0.00
2009,11,12,17,18,0.00
2009,11,12,17,19,0.00
2009,11,12,17,20,0.00
2009,11,12,17,21,0.00
2009,11,12,17,22,0.00
2009,11,12,17,23,0.00
2009,11,12,17,24,0.00
2009,11,12,17,25,0.00
2009,11,12,17,26,0.00